When you browse on this site, cookies collect data to enhance your experience and personalize the content and advertising you see.
Visit our Privacy Policy to learn more. By continuing to use the site, you agree to this use of cookies and data.
EN

Hourly Weather Godzietowy

Today, 23 September, Wednesday

Time Temperature Precipitation Wind Pressure Humidity
00:00 +18°C° 0 mm 4 mps 743 mmHg 55%
01:00 +18°C° 0 mm 4 mps 743 mmHg 58%
02:00 +17°C° 0 mm 4 mps 743 mmHg 58%
03:00 +17°C° 0 mm 4 mps 742 mmHg 58%
04:00 +17°C° 0 mm 4 mps 742 mmHg 59%
05:00 +17°C° 0 mm 4 mps 742 mmHg 59%
06:00 +17°C° 0 mm 4 mps 742 mmHg 59%
07:00 +17°C° 0 mm 5 mps 742 mmHg 56%
08:00 +20°C° 0 mm 5 mps 742 mmHg 51%
09:00 +22°C° 0 mm 5 mps 741 mmHg 47%
10:00 +24°C° 0 mm 6 mps 741 mmHg 42%
11:00 +26°C° 0 mm 6 mps 741 mmHg 42%
12:00 +26°C° 0 mm 6 mps 741 mmHg 42%
13:00 +27°C° 0 mm 6 mps 741 mmHg 42%
14:00 +26°C° 0 mm 5 mps 740 mmHg 45%
15:00 +26°C° 0 mm 5 mps 740 mmHg 49%
16:00 +25°C° 0 mm 4 mps 739 mmHg 52%
17:00 +23°C° 0 mm 4 mps 740 mmHg 56%
18:00 +21°C° 0 mm 3 mps 740 mmHg 60%
19:00 +20°C° 0 mm 3 mps 740 mmHg 64%
20:00 +20°C° 0 mm 3 mps 740 mmHg 66%
21:00 +19°C° 0 mm 3 mps 740 mmHg 69%
22:00 +19°C° 0 mm 3 mps 739 mmHg 71%
23:00 +18°C° 0 mm 3 mps 739 mmHg 72%

Tomorrow, 24 September, Thursday

Time Temperature Precipitation Wind Pressure Humidity
00:00 +18°C° 0 mm 3 mps 739 mmHg 74%
01:00 +17°C° 0 mm 3 mps 739 mmHg 76%
02:00 +17°C° 0 mm 3 mps 739 mmHg 78%
03:00 +16°C° 0 mm 3 mps 739 mmHg 81%
04:00 +16°C° 0 mm 3 mps 739 mmHg 84%
05:00 +16°C° 0 mm 2 mps 739 mmHg 84%
06:00 +17°C° 0 mm 2 mps 740 mmHg 84%
07:00 +17°C° 0 mm 2 mps 740 mmHg 83%
08:00 +19°C° 0 mm 3 mps 740 mmHg 74%
09:00 +21°C° 0 mm 3 mps 740 mmHg 65%
10:00 +22°C° 0 mm 3 mps 741 mmHg 56%
11:00 +24°C° 0 mm 3 mps 741 mmHg 53%
12:00 +25°C° 0 mm 3 mps 740 mmHg 49%
13:00 +26°C° 0 mm 4 mps 740 mmHg 46%
14:00 +26°C° 0 mm 3 mps 740 mmHg 47%
15:00 +26°C° 0 mm 3 mps 740 mmHg 47%
16:00 +25°C° 0 mm 3 mps 740 mmHg 48%
17:00 +24°C° 0.1 mm 3 mps 740 mmHg 54%
18:00 +21°C° 0.1 mm 2 mps 741 mmHg 60%
19:00 +20°C° 0.1 mm 2 mps 741 mmHg 66%
20:00 +19°C° 0 mm 2 mps 740 mmHg 69%
21:00 +19°C° 0 mm 1 mps 740 mmHg 73%
22:00 +19°C° 0 mm 1 mps 740 mmHg 76%
23:00 +18°C° 0 mm 1 mps 740 mmHg 78%

Day after tomorrow, 25 September, Friday

Time Temperature Precipitation Wind Pressure Humidity
00:00 +17°C° 0 mm 2 mps 739 mmHg 80%
01:00 +16°C° 0 mm 2 mps 739 mmHg 81%
02:00 +16°C° 0 mm 2 mps 738 mmHg 81%
03:00 +16°C° 0 mm 3 mps 737 mmHg 81%
04:00 +16°C° 0 mm 3 mps 736 mmHg 81%
05:00 +17°C° 0 mm 4 mps 736 mmHg 78%
06:00 +16°C° 0 mm 5 mps 735 mmHg 76%
07:00 +17°C° 0 mm 6 mps 734 mmHg 73%
08:00 +18°C° 0 mm 7 mps 734 mmHg 68%
09:00 +21°C° 0 mm 7 mps 733 mmHg 64%
10:00 +22°C° 0 mm 8 mps 733 mmHg 60%
11:00 +20°C° 0.8 mm 8 mps 733 mmHg 69%
12:00 +17°C° 0.8 mm 7 mps 733 mmHg 78%
13:00 +16°C° 0.8 mm 7 mps 733 mmHg 87%
14:00 +15°C° 0.3 mm 6 mps 733 mmHg 85%
15:00 +14°C° 0.3 mm 5 mps 733 mmHg 84%
16:00 +14°C° 0.3 mm 5 mps 734 mmHg 83%
17:00 +13°C° 0 mm 4 mps 734 mmHg 81%
18:00 +13°C° 0 mm 4 mps 734 mmHg 78%
19:00 +13°C° 0 mm 3 mps 735 mmHg 76%
20:00 +12°C° 0.1 mm 3 mps 735 mmHg 73%
21:00 +12°C° 0.1 mm 4 mps 735 mmHg 70%
22:00 +12°C° 0.1 mm 4 mps 735 mmHg 67%
23:00 +11°C° 0 mm 3 mps 735 mmHg 68%

26 September, Saturday

Time Temperature Precipitation Wind Pressure Humidity
00:00 +11°C° 0 mm 3 mps 735 mmHg 68%
01:00 +11°C° 0 mm 3 mps 735 mmHg 68%
02:00 +11°C° 0.2 mm 3 mps 735 mmHg 70%
03:00 +11°C° 0.2 mm 4 mps 734 mmHg 72%
04:00 +11°C° 0.2 mm 4 mps 734 mmHg 74%
05:00 +9°C° 1.8 mm 5 mps 734 mmHg 79%
06:00 +8°C° 1.8 mm 6 mps 733 mmHg 85%
07:00 +8°C° 1.8 mm 6 mps 733 mmHg 90%
08:00 +8°C° 4 mm 7 mps 733 mmHg 91%
09:00 +8°C° 4 mm 7 mps 733 mmHg 92%
10:00 +6°C° 4 mm 8 mps 733 mmHg 93%
11:00 +7°C° 2.8 mm 8 mps 733 mmHg 93%
12:00 +7°C° 2.8 mm 8 mps 733 mmHg 92%
13:00 +7°C° 2.8 mm 8 mps 733 mmHg 92%
14:00 +7°C° 0.3 mm 8 mps 733 mmHg 91%
15:00 +7°C° 0.3 mm 8 mps 733 mmHg 90%
16:00 +7°C° 0.3 mm 8 mps 733 mmHg 89%
17:00 +8°C° 0 mm 7 mps 733 mmHg 89%
18:00 +8°C° 0 mm 7 mps 733 mmHg 89%
19:00 +8°C° 0 mm 6 mps 733 mmHg 89%
20:00 +8°C° 1.1 mm 7 mps 733 mmHg 90%
21:00 +8°C° 1.1 mm 7 mps 732 mmHg 91%
22:00 +7°C° 1.1 mm 8 mps 732 mmHg 91%
23:00 +7°C° 2.3 mm 9 mps 732 mmHg 91%

27 September, Sunday

Time Temperature Precipitation Wind Pressure Humidity
00:00 +7°C° 2.3 mm 9 mps 731 mmHg 91%
01:00 +7°C° 2.3 mm 10 mps 731 mmHg 91%
02:00 +7°C° 2 mm 10 mps 731 mmHg 91%
03:00 +7°C° 2 mm 10 mps 730 mmHg 91%
04:00 +7°C° 2 mm 10 mps 730 mmHg 90%
05:00 +6°C° 1 mm 10 mps 730 mmHg 90%
06:00 +6°C° 1 mm 10 mps 731 mmHg 89%
07:00 +5°C° 1 mm 10 mps 731 mmHg 88%
08:00 +5°C° 0.7 mm 10 mps 731 mmHg 89%
09:00 +5°C° 0.7 mm 10 mps 732 mmHg 89%
10:00 +3°C° 0.7 mm 10 mps 733 mmHg 90%
11:00 +3°C° 0.3 mm 9 mps 733 mmHg 90%
12:00 +3°C° 0.3 mm 9 mps 734 mmHg 89%
13:00 +4°C° 0.3 mm 8 mps 735 mmHg 89%
14:00 +4°C° 0.2 mm 8 mps 735 mmHg 88%
15:00 +4°C° 0.2 mm 7 mps 736 mmHg 88%
16:00 +5°C° 0.2 mm 7 mps 736 mmHg 87%
17:00 +5°C° 0.1 mm 6 mps 737 mmHg 86%
18:00 +5°C° 0.1 mm 6 mps 737 mmHg 84%
19:00 +6°C° 0.1 mm 5 mps 738 mmHg 83%
20:00 +6°C° 0 mm 5 mps 738 mmHg 83%
21:00 +6°C° 0 mm 4 mps 739 mmHg 82%
22:00 +6°C° 0 mm 4 mps 739 mmHg 81%
23:00 +5°C° 0 mm 4 mps 739 mmHg 81%

28 September, Monday

Time Temperature Precipitation Wind Pressure Humidity
00:00 +5°C° 0 mm 4 mps 739 mmHg 81%
01:00 +4°C° 0 mm 4 mps 739 mmHg 81%
02:00 +4°C° 0 mm 4 mps 739 mmHg 81%
03:00 +4°C° 0 mm 4 mps 739 mmHg 80%
04:00 +3°C° 0 mm 5 mps 739 mmHg 80%
05:00 +3°C° 0 mm 5 mps 739 mmHg 80%
06:00 +3°C° 0 mm 6 mps 739 mmHg 80%
07:00 +4°C° 0 mm 6 mps 739 mmHg 80%
08:00 +5°C° 0 mm 7 mps 739 mmHg 75%
09:00 +7°C° 0 mm 8 mps 739 mmHg 70%
10:00 +8°C° 0 mm 9 mps 739 mmHg 65%
11:00 +10°C° 0 mm 8 mps 739 mmHg 64%
12:00 +10°C° 0 mm 8 mps 739 mmHg 62%
13:00 +11°C° 0 mm 8 mps 739 mmHg 60%
14:00 +10°C° 0 mm 7 mps 739 mmHg 63%
15:00 +9°C° 0 mm 7 mps 739 mmHg 65%
16:00 +9°C° 0 mm 6 mps 739 mmHg 67%
17:00 +8°C° 0.1 mm 6 mps 739 mmHg 69%
18:00 +8°C° 0.1 mm 6 mps 739 mmHg 71%
19:00 +8°C° 0.1 mm 6 mps 740 mmHg 73%
20:00 +7°C° 0.1 mm 6 mps 740 mmHg 75%
21:00 +7°C° 0.1 mm 5 mps 740 mmHg 77%
22:00 +7°C° 0.1 mm 5 mps 740 mmHg 80%
23:00 +7°C° 0.2 mm 5 mps 740 mmHg 82%
Show more